Location: Saint-Gilles les Bains
(21.0539°S, 55.2287°E)
Time: 16:37:18
(UTC+04:00)

ISS - Pass Details

Date: 17 June 2021
Orbit: 419 x 421 km, 51.6° (Epoch: 31 July)

Event Time Altitude Azimuth Distance (km) Brightness Sun altitude
Rises 19:07:44 0° 296° (WNW) 2,369 1.7 -18.6°
Reaches altitude 10° 19:10:07 10° 280° (W) 1,511 0.3 -19.1°
Maximum altitude 19:12:51 22° 226° (SW) 980 -1.6 -19.8°
Enters shadow 19:14:09 18° 194° (SSW) 1,124 -1.7 -20.0°
